Tracking 18850 objects as of 22-Nov-2017
HD Live streaming from Space Station
objects crossing your sky now

FENGYUN 1C DEB

Track FENGYUN 1C DEB now!
10-day predictions


NORAD ID: 33656
Int'l Code: 1999-025DER
Perigee: 770.2 km
Apogee: 906.0 km
Inclination: 98.7 °
Period: 101.5 minutes
Semi major axis: 7209 km
RCS: 0.0162 m2 (small)
Launch date: May 10, 1999
Source: People's Republic of China (PRC)
Launch site: Taiyaun Space Center, China (TSC)

Note: This is SATELLITE DEBRIS
aabbcc
Your satellite tracking list
Your tracking list is empty




NASA's NSSDC Master Catalog

Two Line Element Set (TLE):
1 33656U 99025DER 17323.34612479  .00000193  00000-0  11014-3 0  9993
2 33656  98.7248 357.2693 0094191 257.0925 169.8314 14.18339583527384
Source of the keplerian elements: AFSPC